TIME,DELAY(SENSOR),PRES,T(CTD),SAL,OXYGEN,RAWTEMP,T(OPTODE),TCPHASE,TURBIDITY,TURBIDITY_GAIN,FLUOR,BETA,CDOM,ED411.5,ED443.8,ED489.6,PAR,COMP,TILT,TILTY(TILT),CHECK
1341661796,6468,136.6799926757812500,5.0111999511718750,34.9753990173339840,367.2131958007812500,651.8070068359375000,4.9913392066955570,32.2445297241210940,16,3,51,110,62,2147636493,2147412982,2147407236,2148338596,1517,2,-4,22550
1341661857,6467,133.3000030517578000,5.0174999237060550,34.9753990173339840,366.7153930664062500,651.5548706054688000,4.9995350837707520,32.2556686401367200,16,3,50,115,60,2147637736,2147417928,2147425457,2148341073,1237,2,-6,56295
1341661918,6467,129.9499969482422000,5.0342001914978030,34.9762001037597660,366.2731933593750000,651.1185302734375000,5.0137271881103520,32.2618293762207000,11,3,51,112,62,2147639560,2147422614,2147443826,2148345526,849,2,-4,2586
1341661980,6467,126.5500030517578100,5.0461997985839840,34.9774017333984400,366.0607910156250000,650.7532958984375000,5.0255999565124510,32.2620506286621100,23,3,52,114,62,2147640726,2147424891,2147460003,2148343318,402,2,-4,28566
1341662041,6468,123.1600036621093800,5.0602998733520510,34.9781990051269500,365.6091003417969000,650.1331787109375000,5.0457568168640140,32.2649993896484400,16,3,51,114,62,2147640548,2147430961,2147492332,2148349695,3421,2,-4,61841
1341662102,6468,119.7399978637695300,5.0945000648498535,34.9808006286621100,364.9450073242187500,649.3582763671875000,5.0709400177001950,32.2720909118652340,16,3,50,116,62,2147641160,2147444018,2147562966,2148362313,2929,2,-6,42462
1341662163,6466,116.3099975585937500,5.1132001876831055,34.9826011657714840,364.6333007812500000,648.7495727539062000,5.0907211303710940,32.2713508605957000,13,3,52,119,62,2147643387,2147461686,2147663080,2148376145,2680,2,-6,54597
1341662227,6468,112.6699981689453100,5.1280999183654785,34.9840011596679700,364.0591125488281000,648.2650146484375000,5.1064620018005370,32.2808494567871100,16,3,50,134,62,2147645439,2147474138,2147700941,2148381064,2395,2,-6,39532
1341662289,6467,109.1999969482421900,5.1448998451232910,34.9852981567382800,363.8359985351562500,647.6751098632812000,5.1256241798400880,32.2773017883300800,16,3,50,114,62,2147647629,2147501187,2147822774,2148398756,2069,2,-6,22820
1341662353,6467,105.6200027465820300,5.1721000671386720,34.9878997802734400,363.4291076660156000,646.9075927734375000,5.1505470275878910,32.2766609191894500,16,3,50,117,62,2147651802,2147516256,2147894362,2148412268,1837,2,-5,44884
1341662414,6468,102.2600021362304700,5.1844000816345215,34.9891014099121100,363.2986145019531000,646.5267944335938000,5.1629099845886230,32.2737503051757800,12,3,50,122,62,2147653224,2147524941,2147915683,2148418513,1803,2,-6,48506
1341662478,6469,98.8300018310546900,5.1940999031066895,34.9901008605957000,363.1145019531250000,646.1375122070312000,5.1755490303039550,32.2727088928222660,16,3,50,113,62,2147658595,2147553818,2148033946,2148438998,1479,2,-6,29510
1341662539,6466,95.6900024414062500,5.2211999893188480,34.9925003051757800,363.1142883300781000,645.4320068359375000,5.1984457969665530,32.2600517272949200,11,3,52,112,62,2147664539,2147590339,2148187565,2148461873,1082,2,-5,53860
1341662603,6469,92.4899978637695300,5.2372999191284180,34.9934997558593750,362.6755065917969000,644.9182739257812000,5.2151150703430180,32.2649383544921900,11,3,52,116,62,2147670796,2147606285,2148231496,2148470468,704,2,-6,49731
1341662664,6468,89.5599975585937500,5.2463998794555660,34.9944992065429700,362.4038085937500000,644.5639038085938000,5.2266139984130860,32.2675285339355500,16,3,53,120,62,2147673494,2147620269,2148279853,2148484854,363,2,-6,54447
1341662728,6469,86.5899963378906200,5.2530999183654785,34.9947013854980500,362.0793151855469000,644.3220214843750000,5.2344632148742680,32.2734413146972660,16,3,54,118,62,2147680809,2147644771,2148366230,2148500968,3372,2,-6,63966
1341662792,6467,83.7200012207031200,5.2641000747680660,34.9949989318847660,361.8869934082031000,644.0239868164062000,5.2441267967224120,32.2741584777832000,16,3,58,132,62,2147683807,2147671620,2148468022,2148523670,3056,2,-6,53144
1341662856,6467,80.8300018310546900,5.2774000167846680,34.9948005676269500,361.3833923339844000,643.5980834960938000,5.2579441070556640,32.2830085754394500,16,3,67,139,62,2147700511,2147712712,2148615080,2148550884,2671,2,-6,14542
1341662918,6467,78.0699996948242200,5.2867999076843260,34.9958992004394500,361.2596130371094000,643.3251953125000000,5.2667942047119140,32.2818984985351560,16,3,70,146,62,2147699094,2147702619,2148542221,2148546760,2527,2,-6,49920
1341662982,6468,75.2600021362304700,5.2972002029418945,34.9956016540527340,361.1881103515625000,642.9796142578125000,5.2780017852783200,32.2781181335449200,13,3,70,132,60,2147708777,2147728300,2148630628,2148566705,2294,2,-6,15597
1341663043,6468,72.6399993896484400,5.3134999275207520,34.9970016479492200,361.1123046875000000,642.5548706054688000,5.2917709350585940,32.2729110717773440,12,3,68,131,62,2147718504,2147736735,2148644969,2148577338,1995,2,-6,32201
1341663107,6469,69.8600006103515600,5.3280000686645510,34.9981994628906250,360.9429931640625000,642.0632934570312000,5.3077111244201660,32.2695884704589840,16,3,64,134,62,2147733434,2147781549,2148792612,2148614120,1876,2,-6,38036
1341663168,6468,67.2099990844726600,5.3434000015258790,34.9998016357421900,360.8869018554687500,641.5974731445312000,5.3228092193603520,32.2630882263183600,16,3,66,135,62,2147734170,2147764150,2148700698,2148601768,1632,2,-6,23650
1341663232,6468,64.4100036621093800,5.3671998977661130,35.0000000000000000,360.5910949707031000,640.9481201171875000,5.3438568115234375,32.2610816955566400,16,3,69,143,61,2147789937,2147939921,2149370897,2148753636,1429,2,-6,65257
1341663293,6468,61.5900001525878900,5.3748002052307130,35.0008010864257800,360.6048889160156000,640.5441284179688000,5.3569450378417970,32.2537307739257800,16,3,71,147,62,2147795085,2147918038,2149224762,2148733878,1364,2,-6,11858
1341663357,6466,58.5099983215332000,5.4106001853942870,35.0015983581543000,360.2608947753906000,639.5656738281250000,5.3886427879333500,32.2472190856933600,16,3,71,144,62,2147832745,2148000562,2149483551,2148808982,1251,2,-6,41086
1341663418,6468,55.3100013732910160,5.4175000190734860,35.0017013549804700,360.2880859375000000,639.3139038085938000,5.3967990875244140,32.2417793273925800,14,3,74,137,62,2147902592,2148161539,2150027136,2148962070,922,2,-6,10522
1341663482,6469,51.6800003051757800,5.4552998542785645,34.9989013671875000,360.4462890625000000,638.3635864257812000,5.4275717735290530,32.2201309204101560,15,3,132,147,62,2148035817,2148515532,2151203318,2149278390,354,2,-6,33622
1341663544,6470,47.9900016784668000,5.4681000709533690,34.9975013732910160,361.0686035156250000,637.7011108398438000,5.4490199089050290,32.1883888244628900,15,3,156,150,60,2148248781,2149004086,2152740406,2149727898,106,2,-6,40793
1341663608,6469,44.2299995422363300,5.5781002044677730,34.9935989379882800,361.3286132812500000,634.5046997070312000,5.5524368286132810,32.1239700317382800,17,3,234,188,62,2148527876,2149568941,2154227268,2150199976,399,2,-6,41559
1341663669,6466,40.9000015258789060,5.6498999595642090,34.9953002929687500,362.7843017578125000,632.2432250976562000,5.6255440711975100,32.0382118225097660,25,3,250,176,62,2148785160,2149984588,2155047528,2150504763,2891,2,-6,11039
1341663733,6470,37.5299987792968750,5.7179999351501465,34.9953002929687500,364.6606140136719000,630.0604858398438000,5.6960492134094240,31.9406204223632800,23,3,309,214,62,2149668580,2151702650,2159541590,2151913370,3050,2,-6,12669
1341663794,6470,34.4399986267089840,5.7740998268127440,34.9944000244140600,366.6061096191406000,628.5155029296875000,5.7459301948547360,31.8525695800781250,27,3,384,225,62,2150517641,2153056635,2162221270,2152852978,3076,2,-5,24911
1341663858,6470,31.3299999237060550,5.7933998107910160,34.9954986572265600,369.1325073242187500,627.6431274414062000,5.7740840911865230,31.7587699890136720,29,3,387,237,62,2152285426,2156018303,2168779661,2155135382,2663,2,-4,40919
1341663919,6471,28.4899997711181640,6.0096001625061035,34.9889984130859400,370.6720886230469000,621.8532714843750000,5.9607300758361820,31.6112804412841800,49,3,534,421,64,2153555592,2157636352,2170819958,2155950696,2232,0,-6,41828
1341663983,6471,26.1900005340576170,6.2165999412536620,34.9889984130859400,381.7723083496094000,615.2797851562500000,6.1722321510314940,31.1632499694824220,75,3,528,524,64,2156556365,2162147460,2179009800,2158780708,2008,2,-6,28532
1341664230,6470,17.1800003051757800,7.6764998435974120,34.9751014709472660,404.9451904296875000,571.2988281250000000,7.5766181945800780,29.7832603454589840,139,3,175,1055,63,2204628296,2220406322,2257112113,2189635679,498,1,-5,12529
1341664294,6466,14.2299995422363280,9.1266002655029300,34.9729995727539060,399.6919860839844000,525.1513061523438000,9.0319023132324220,29.2159194946289060,120,3,161,895,60,2225660589,2243248027,2282913128,2201672374,89,0,-5,50048
1341664355,6470,12.5000000000000000,9.6092996597290040,34.9749984741210940,396.2856140136719000,508.2731018066406000,9.5599718093872070,29.0580101013183600,127,3,146,855,55,2236321416,2254210353,2294016122,2207773087,1502,0,-6,27852
1341664435,6470,11.4399995803833000,10.1633996963500980,34.9841003417968750,386.7232055664062500,489.8671875000000000,10.1335000991821290,29.0548801422119140,114,3,122,848,58,2245084913,2263417183,2303234440,2212790555,1558,2,-7,2618
1341664561,6466,7.9000000953674320,10.7027997970581050,34.9863014221191400,376.2572937011719000,470.5179138183594000,10.7339801788330080,29.0744400024414060,103,3,94,787,56,2293811739,2312490093,2350271369,2243695880,2213,0,-7,45121
1341664625,6468,4.9899997711181640,10.8456001281738280,34.9982986450195300,371.8738098144531000,466.8367004394531000,10.8479499816894530,29.1493301391601560,103,3,88,677,59,2349070957,2370154610,2409754449,2290529444,2180,1,-2,50417
1341664675,6469,3.6600000858306885,0.0000000000000000,0.0000000000000000,370.2467041015625000,465.1390991210937500,10.9004802703857420,29.1730499267578120,107,3,86,685,49,2365829842,2385038029,2420963880,2310593059,1888,-6,-2,10976
1341664714,6467,0.3000000119209290,0.0000000000000000,0.0000000000000000,368.1896972656250000,463.3995971679687500,10.9542903900146480,29.2090301513671880,104,3,82,670,52,2425209334,2443729078,2479899839,2389556611,2791,6,1,58714
